Hourly Weather Matlock

Today, 26 September, Saturday

Time Temperature Precipitation Wind Pressure Humidity
00:00 +5°C° 0 mm 5 mps 741 mmHg 74%
01:00 +3°C° 0 mm 5 mps 741 mmHg 74%
02:00 +3°C° 0 mm 5 mps 741 mmHg 74%
03:00 +3°C° 0 mm 5 mps 742 mmHg 73%
04:00 +2°C° 0 mm 5 mps 742 mmHg 74%
05:00 +2°C° 0 mm 5 mps 742 mmHg 74%
06:00 +2°C° 0 mm 5 mps 742 mmHg 74%
07:00 +3°C° 0 mm 5 mps 742 mmHg 71%
08:00 +4°C° 0 mm 6 mps 742 mmHg 69%
09:00 +6°C° 0 mm 7 mps 743 mmHg 66%
10:00 +8°C° 0 mm 7 mps 743 mmHg 65%
11:00 +8°C° 0 mm 7 mps 743 mmHg 64%
12:00 +9°C° 0 mm 7 mps 743 mmHg 63%
13:00 +9°C° 0 mm 7 mps 743 mmHg 64%
14:00 +9°C° 0 mm 7 mps 743 mmHg 64%
15:00 +9°C° 0 mm 7 mps 744 mmHg 65%
16:00 +9°C° 0 mm 6 mps 744 mmHg 67%
17:00 +8°C° 0 mm 6 mps 744 mmHg 68%
18:00 +8°C° 0 mm 5 mps 744 mmHg 69%
19:00 +7°C° 0 mm 5 mps 744 mmHg 71%
20:00 +7°C° 0 mm 5 mps 745 mmHg 73%
21:00 +6°C° 0 mm 5 mps 745 mmHg 75%
22:00 +6°C° 0 mm 5 mps 745 mmHg 76%
23:00 +6°C° 0 mm 5 mps 745 mmHg 77%

Tomorrow, 27 September, Sunday

Time Temperature Precipitation Wind Pressure Humidity
00:00 +6°C° 0 mm 5 mps 744 mmHg 77%
01:00 +6°C° 0 mm 5 mps 744 mmHg 77%
02:00 +6°C° 0 mm 5 mps 744 mmHg 76%
03:00 +6°C° 0 mm 5 mps 744 mmHg 76%
04:00 +6°C° 0 mm 5 mps 744 mmHg 76%
05:00 +6°C° 0 mm 5 mps 744 mmHg 77%
06:00 +6°C° 0 mm 5 mps 744 mmHg 77%
07:00 +7°C° 0 mm 5 mps 744 mmHg 76%
08:00 +8°C° 0 mm 6 mps 745 mmHg 75%
09:00 +8°C° 0 mm 6 mps 745 mmHg 74%
10:00 +9°C° 0 mm 6 mps 745 mmHg 72%
11:00 +10°C° 0 mm 5 mps 745 mmHg 70%
12:00 +10°C° 0 mm 5 mps 744 mmHg 68%
13:00 +12°C° 0 mm 5 mps 744 mmHg 68%
14:00 +12°C° 0 mm 5 mps 744 mmHg 67%
15:00 +12°C° 0 mm 4 mps 744 mmHg 66%
16:00 +11°C° 0 mm 4 mps 744 mmHg 71%
17:00 +10°C° 0 mm 3 mps 744 mmHg 75%
18:00 +8°C° 0 mm 2 mps 744 mmHg 79%
19:00 +8°C° 0 mm 2 mps 744 mmHg 81%
20:00 +7°C° 0 mm 2 mps 744 mmHg 82%
21:00 +7°C° 0 mm 2 mps 744 mmHg 84%
22:00 +6°C° 0 mm 2 mps 744 mmHg 85%
23:00 +7°C° 0 mm 1 mps 744 mmHg 85%

Day after tomorrow, 28 September, Monday

Time Temperature Precipitation Wind Pressure Humidity
00:00 +7°C° 0 mm 1 mps 744 mmHg 85%
01:00 +7°C° 0 mm 1 mps 744 mmHg 84%
02:00 +7°C° 0 mm 1 mps 743 mmHg 83%
03:00 +7°C° 0 mm 1 mps 743 mmHg 81%
04:00 +6°C° 0 mm 1 mps 743 mmHg 80%
05:00 +6°C° 0 mm 1 mps 743 mmHg 79%
06:00 +6°C° 0 mm 1 mps 743 mmHg 78%
07:00 +7°C° 0 mm 2 mps 743 mmHg 72%
08:00 +8°C° 0 mm 2 mps 742 mmHg 67%
09:00 +10°C° 0 mm 2 mps 742 mmHg 61%
10:00 +13°C° 0 mm 2 mps 742 mmHg 64%
11:00 +13°C° 0 mm 3 mps 742 mmHg 67%
12:00 +16°C° 0 mm 3 mps 742 mmHg 70%
13:00 +16°C° 0.1 mm 3 mps 742 mmHg 73%
14:00 +17°C° 0.1 mm 3 mps 742 mmHg 76%
15:00 +17°C° 0.1 mm 4 mps 742 mmHg 79%
16:00 +14°C° 0.1 mm 4 mps 742 mmHg 83%
17:00 +13°C° 0.1 mm 3 mps 742 mmHg 86%
18:00 +12°C° 0.1 mm 3 mps 742 mmHg 90%
19:00 +11°C° 0 mm 3 mps 743 mmHg 90%
20:00 +10°C° 0 mm 3 mps 743 mmHg 91%
21:00 +9°C° 0 mm 2 mps 743 mmHg 91%
22:00 +9°C° 0 mm 2 mps 744 mmHg 91%
23:00 +8°C° 0 mm 2 mps 744 mmHg 91%

29 September, Tuesday

Time Temperature Precipitation Wind Pressure Humidity
00:00 +8°C° 0 mm 2 mps 744 mmHg 91%
01:00 +7°C° 0 mm 2 mps 744 mmHg 91%
02:00 +7°C° 0 mm 2 mps 744 mmHg 92%
03:00 +7°C° 0 mm 2 mps 744 mmHg 92%
04:00 +7°C° 0 mm 2 mps 745 mmHg 92%
05:00 +7°C° 0 mm 2 mps 745 mmHg 93%
06:00 +7°C° 0 mm 2 mps 745 mmHg 93%
07:00 +8°C° 0 mm 2 mps 745 mmHg 90%
08:00 +9°C° 0 mm 2 mps 746 mmHg 87%
09:00 +10°C° 0 mm 2 mps 746 mmHg 83%
10:00 +12°C° 0 mm 2 mps 746 mmHg 77%
11:00 +13°C° 0 mm 2 mps 746 mmHg 71%
12:00 +14°C° 0 mm 2 mps 746 mmHg 65%
13:00 +14°C° 0 mm 2 mps 746 mmHg 64%
14:00 +14°C° 0 mm 2 mps 746 mmHg 62%
15:00 +14°C° 0 mm 3 mps 745 mmHg 60%
16:00 +13°C° 0 mm 2 mps 745 mmHg 65%
17:00 +12°C° 0 mm 2 mps 745 mmHg 70%
18:00 +11°C° 0 mm 1 mps 745 mmHg 74%
19:00 +11°C° 0 mm 1 mps 745 mmHg 76%
20:00 +10°C° 0 mm 1 mps 745 mmHg 78%
21:00 +10°C° 0 mm 1 mps 745 mmHg 80%
22:00 +9°C° 0 mm 1 mps 745 mmHg 81%
23:00 +9°C° 0 mm 1 mps 745 mmHg 82%

30 September, Wednesday

Time Temperature Precipitation Wind Pressure Humidity
00:00 +9°C° 0 mm 1 mps 745 mmHg 83%
01:00 +8°C° 0 mm 2 mps 744 mmHg 85%
02:00 +8°C° 0 mm 2 mps 744 mmHg 86%
03:00 +8°C° 0 mm 2 mps 744 mmHg 87%
04:00 +8°C° 0 mm 2 mps 743 mmHg 88%
05:00 +8°C° 0 mm 2 mps 743 mmHg 89%
06:00 +8°C° 0 mm 3 mps 743 mmHg 90%
07:00 +9°C° 0 mm 3 mps 743 mmHg 85%
08:00 +10°C° 0 mm 4 mps 743 mmHg 80%
09:00 +10°C° 0 mm 5 mps 743 mmHg 75%
10:00 +12°C° 0 mm 5 mps 742 mmHg 72%
11:00 +13°C° 0 mm 6 mps 742 mmHg 69%
12:00 +14°C° 0 mm 6 mps 741 mmHg 66%
13:00 +14°C° 0 mm 6 mps 740 mmHg 66%
14:00 +14°C° 0 mm 6 mps 739 mmHg 67%
15:00 +14°C° 0 mm 6 mps 739 mmHg 67%
16:00 +14°C° 0 mm 6 mps 738 mmHg 71%
17:00 +13°C° 0 mm 6 mps 737 mmHg 75%
18:00 +13°C° 0 mm 6 mps 737 mmHg 79%
19:00 +13°C° 0 mm 6 mps 736 mmHg 82%
20:00 +12°C° 0 mm 7 mps 735 mmHg 84%
21:00 +12°C° 0 mm 7 mps 734 mmHg 87%
22:00 +12°C° 0.3 mm 8 mps 733 mmHg 87%
23:00 +13°C° 0.3 mm 8 mps 732 mmHg 88%

1 October, Thursday

Time Temperature Precipitation Wind Pressure Humidity
00:00 +13°C° 0.3 mm 8 mps 731 mmHg 88%
01:00 +13°C° 2 mm 9 mps 730 mmHg 89%
02:00 +13°C° 2 mm 9 mps 729 mmHg 91%
03:00 +12°C° 2 mm 9 mps 728 mmHg 92%
04:00 +12°C° 1 mm 8 mps 728 mmHg 91%
05:00 +12°C° 1 mm 7 mps 728 mmHg 91%
06:00 +13°C° 1 mm 6 mps 727 mmHg 91%
07:00 +13°C° 0.1 mm 6 mps 727 mmHg 88%
08:00 +13°C° 0.1 mm 5 mps 727 mmHg 84%
09:00 +13°C° 0.1 mm 5 mps 727 mmHg 81%
10:00 +14°C° 0.2 mm 5 mps 727 mmHg 77%
11:00 +15°C° 0.2 mm 6 mps 727 mmHg 73%
12:00 +16°C° 0.2 mm 6 mps 727 mmHg 68%
13:00 +15°C° 0.4 mm 6 mps 726 mmHg 70%
14:00 +15°C° 0.4 mm 6 mps 726 mmHg 71%
15:00 +15°C° 0.4 mm 7 mps 726 mmHg 72%
16:00 +15°C° 0.5 mm 7 mps 725 mmHg 78%
17:00 +14°C° 0.5 mm 7 mps 725 mmHg 83%
18:00 +12°C° 0.5 mm 7 mps 725 mmHg 89%
19:00 +11°C° 0.3 mm 6 mps 725 mmHg 87%
20:00 +11°C° 0.3 mm 6 mps 726 mmHg 85%
21:00 +10°C° 0.3 mm 5 mps 726 mmHg 84%
22:00 +9°C° 0 mm 5 mps 726 mmHg 82%
23:00 +9°C° 0 mm 5 mps 726 mmHg 80%
Show more